Location: Carrières
(48.9495°N, 2.0407°E)
Time: 22:26:08
(UTC+00:00)

Tiros 1 - Pass Details

Date: 25 April 2024
Orbit: 624 x 657 km, 48.4° (Epoch: 23 May)

Event Time Altitude Azimuth Distance (km) Brightness Sun altitude
Rises 21:24:38 0° 212° (SSW) 2,942 - -19.7°
Reaches altitude 10° 21:27:17 10° 200° (SSW) 2,029 - -20.0°
Maximum altitude 21:31:05 25° 145° (SE) 1,283 - -20.4°
Drops below altitude 10° 21:34:53 10° 90° (E) 2,019 - -20.7°
Sets 21:37:31 0° 77° (ENE) 2,924 - -21.0°
